If you wish to contribute or participate in the discussions about articles you are invited to join SKYbrary as a registered user

 Actions

Ain el Beida Airport

From SKYbrary Wiki

DAUU
Airport
ICAO: DAUU – IATA: OGX
Summary
Name Ain el Beida Airport
Region Africa
Territory Algeria DZ.gif
Location , Ouargla
Serving Ouargla
Elevation 149.962 m
492 ft
492 ft149.962 m
Type medium airport
Coordinates 31° 55' 2.0028", 5° 24' 46.0008"
Runways
Designator Length Width Surface ROPS
2/20 3000 m9,842.52 ft 45 m147.638 ft ASP /
18/36 3100 m10,170.604 ft 45 m147.638 ft ASP /


METAR
Observation DAUU 232200Z 35006KT CAVOK 34/06 Q1013
Station Ouargla
Date/Time 23 June 2018 22:00:00
Wind direction 350°
Wind speed 06 kts
Lowest cloud amount clouds and visibility OK
Temperature 34°C
Dew point 6°C
Humidity 17%
QNH 1013 hPa
Weather condition n/a